Regional Weather Roundup
Issued by NWS Mt. Holly, NJ

Home | Current Version | Previous Version | Text Only | Print | Product List | Glossary On
Versions: 1 2 3 4 5 6 7 8 9 10 11 12 13 14 15 16 17 18 19 20 21 22 23 24 25 26 27 28 29 30 31 32 33 34 35 36 37 38 39 40 41 42 43 44 45 46 47 48 49 50
000
ASUS41 KPHI 010111
RWRPHI

REGIONAL WEATHER ROUNDUP
NATIONAL WEATHER SERVICE MOUNT HOLLY NJ
900 PM EDT MON AUG 31 2015

NOTE:  "FAIR" INDICATES FEW OR NO CLOUDS BELOW 12,000 FEET WITH NO
SIGNIFICANT WEATHER AND/OR OBSTRUCTIONS TO VISIBILITY.

 * = STATION DOES NOT REPORT PRECIPITATION (E.G. RAIN, SNOW, ETC.)
        OR FOG.

NJZ015>026-010200-
SOUTHERN NEW JERSEY

CITY           SKY/WX    TMP DP  RH WIND       PRES   REMARKS
POMONA         FAIR      79  66  64 SW8       30.03R
WILDWOOD*      FAIR      79  66  65 SW9       30.05R
MILLVILLE      FAIR      74  66  76 CALM      30.04R
WRIGHTSTOWN    FAIR      78  70  77 SW8       29.98S
MOUNT HOLLY    FAIR      80  68  66 SW6       30.01R
TRENTON        FAIR      82  69  64 SW7       30.00R

$$
NJZ001>014-010200-
NORTHERN NEW JERSEY

CITY           SKY/WX    TMP DP  RH WIND       PRES   REMARKS
ANDOVER*         N/A     72  70  93 CALM      30.01R
MORRISTOWN     PTCLDY    77  68  73 CALM      29.99R
NEWARK         FAIR      87  65  47 W9        29.97R
TETERBORO      FAIR      85  64  49 W5        29.95R
CALDWELL       FAIR      82  66  58 SW3       29.98R
SOMERVILLE     FAIR      78  66  66 CALM      29.97R
ALLAIRE*       FAIR      81  64  57 SW6       30.00R
TOMS RIVER*    FAIR      77  66  69 SW7       30.01S

$$
PAZ043-044-047-054-055-060>062-066>071-010200-
EASTERN PENNSYLVANIA

CITY           SKY/WX    TMP DP  RH WIND       PRES   REMARKS
PHILADELPHIA   FAIR      82  67  60 SW10      30.02R
NORTH PHILA    FAIR      83  66  56 SW9       30.02R
BLUE BELL      FAIR      79  70  73 SW3       30.01S
DOYLESTOWN     FAIR      79  70  74 SW8       30.01R
QUAKERTOWN*    FAIR      77  68  73 CALM      30.03S
POTTSTOWN      FAIR      79  71  76 SW5       30.03S
LANCASTER      FAIR      80  67  64 SW3       30.03R
COATESVILLE    FAIR      75  70  83 SW3       30.05S
READING        FAIR      80  67  64 SW3       30.01R
ALLENTOWN      FAIR      81  68  64 W6        30.01R
MOUNT POCONO   FAIR      70  64  81 NW3       30.08R
HAZLETON       FAIR      73  64  73 CALM      30.11R
WILKES BARRE   MOCLDY    76  69  79 CALM      30.03R

$$
DEZALL-MDZ008-012-015-019-020-010200-
DELAWARE AND EASTERN MARYLAND

CITY           SKY/WX    TMP DP  RH WIND       PRES   REMARKS
WILMINGTON     CLEAR     78  68  71 SW5       30.03R
DOVER          CLEAR     77  68  73 S7        30.02S
GEORGETOWN     NOT AVBL
EASTON         CLEAR     77  72  83 S7        30.09R
PATUXENT       CLEAR     76  70  82 S6        30.05S
OCEAN CITY     CLEAR     75  67  76 W5        30.06S
WALLOPS ISLAND FAIR      75  66  73 SW7       30.08R
CAMBRIDGE      CLEAR     77  70  78 S3        30.05S
SALISBURY      CLEAR     73  68  84 SW6       30.06S

$$
PAZ001-021-NYZ056-072-MDZ011-DCZ001-010200-
OTHER NEARBY LOCATIONS

CITY           SKY/WX    TMP DP  RH WIND       PRES   REMARKS
HARRISBURG     FAIR      80  70  71 CALM      30.02R
STATE COLLEGE  CLEAR     77  66  69 W5        30.07R
WILLIAMSPORT   FAIR      75  70  84 CALM      30.00R
BINGHAMTON     FAIR      73  63  70 NW5       30.06R
NEW YORK CITY  FAIR      86  63  45 VRB3      30.00R
BALTIMORE      PTCLDY    79  65  62 S3        30.03R
WASHINGTON DC  FAIR      80  67  64 S7        30.05R

$$


USA.gov is the U.S. government's official web portal to all federal, state and local government web resources and services.